RH
35 36 37 36 39 42 46 47 48 49 49 48 49 52 54 56 59 64 65 68 72 76 74 73 72 74 77 79 81 84 84 85 83 83 85 87 88 85 85 86 88 88 89
47 38 37 39 39 41 41 45 48 49 50 52 53 54 58 60 60 60 60 64 68 70 67 68 67 70 73 76 79 82 85 85 86 81 84 90 94 93 92 91 91 86 87
55 53 43 42 39 40 41 41 45 47 48 50 51 50 52 53 56 58 57 58 59 59 58 57 55 59 59 59 62 72 79 83 86 90 90 93 94 93 92 89 94 94 89
57 58 57 51 44 41 40 41 43 45 45 45 47 47 49 52 55 57 56 55 54 52 52 52 52 53 52 55 59 60 66 73 78 89 94 93 93 89 89 95 93 95 92
70 63 59 62 58 55 48 42 43 48 48 50 52 51 53 53 52 54 54 56 57 55 53 50 51 53 53 56 61 62 67 71 77 82 81 87 92 94 90 92 95 91 94
71 71 67 59 59 56 60 61 59 54 50 56 55 57 58 53 51 56 59 59 59 56 53 56 57 59 57 62 67 69 69 71 78 81 83 85 85 92 94 88 96 92 99
65 65 71 73 71 61 59 62 64 66 67 65 63 64 63 64 61 61 63 70 67 62 64 68 68 67 69 72 74 74 76 74 69 74 77 83 77 76 82 85 79 78 78
59 61 58 65 72 73 66 64 63 62 66 67 69 70 71 67 66 67 72 74 73 69 70 72 72 72 78 81 82 83 81 82 79 76 75 77 79 80 77 82 84 96 98
41 47 54 56 60 69 74 71 66 67 65 67 71 76 75 72 74 72 76 82 84 81 77 78 79 81 83 86 91 87 88 87 84 84 89 90 90 88 92 89 90 93 98
33 38 43 45 50 55 56 61 66 68 67 71 73 73 72 75 70 73 80 84 84 80 81 84 85 85 85 89 93 92 92 91 90 95 93 97 98 97 97 95 94 97 97
28 29 35 41 46 48 49 51 58 64 68 72 77 78 81 80 78 80 83 86 87 86 88 86 85 86 89 91 94 95 94 95 96 95 97 95 97 94 89 97 96 93 94
25 28 31 33 38 41 45 50 56 63 70 73 76 80 86 87 87 88 91 93 94 96 92 90 91 92 93 94 96 96 97 97 98 98 95 94 96 97 97 97 96 96 95
26 28 29 33 34 39 41 48 55 66 74 80 87 89 89 89 91 92 92 97 96 96 97 92 92 96 98 95 95 98 96 96 96 97 97 96 96 96 96 96 96 96 96
32 32 35 35 36 41 46 49 57 64 72 85 91 93 94 92 94 92 92 90 95 99 98 96 99 96 95 96 96 96 98 97 96 95 97 97 96 96 95 95 93 90 85
39 38 40 43 44 51 60 61 61 65 73 81 89 94 99 87 98 92 90 94 98 98 96 97 96 96 97 94 96 96 96 97 97 95 96 96 96 93 89 84 75 65 56
47 48 50 53 54 59 73 86 80 75 75 81 88 91 93 91 96 96 87 98 97 94 97 97 97 95 95 96 99 94 95 96 96 93 92 88 80 69 58 49 44 42 41
60 60 62 65 65 67 81 90 95 87 85 86 90 95 95 93 93 97 92 94 90 94 96 96 97 98 96 96 95 97 97 93 90 78 62 53 47 43 40 39 37 35 33
69 75 77 79 82 83 90 93 97 97 97 95 93 94 93 91 97 96 94 96 93 96 97 96 96 97 97 95 93 84 69 57 49 44 44 43 41 38 34 33 30 27 23
82 89 92 94 94 97 97 96 96 96 96 97 99 95 96 97 97 96 96 98 95 96 97 95 93 86 76 63 58 53 49 46 44 42 37 32 29 26 24 23 21 21 22
90 93 94 95 96 97 97 97 97 96 97 97 97 96 95 95 96 96 98 92 87 81 71 62 58 53 48 46 43 39 34 32 29 26 24 23 22 20 20 22 23 24 25
94 95 96 96 96 96 97 97 97 97 97 96 96 95 92 83 74 65 59 56 54 51 48 45 40 36 34 32 30 27 23 22 23 21 18 17 18 19 21 23 25 27 27
93 91 89 85 83 79 76 75 75 72 70 66 63 60 56 52 50 49 47 44 44 42 39 36 34 31 27 24 22 21 18 16 17 17 18 19 19 19 21 24 25 26 29
63 62 60 60 61 59 57 53 50 47 45 42 40 38 37 35 33 31 29 26 26 25 22 20 18 17 16 16 16 16 16 17 18 19 19 20 21 22 22 24 27 31 35
52 49 46 44 42 41 40 39 37 35 33 33 32 31 30 28 26 24 21 18 18 17 16 16 16 17 17 17 17 18 19 19 20 21 22 22 23 24 26 30 32 37 43
37 37 36 33 31 29 28 27 26 26 26 25 24 23 23 23 20 19 19 20 19 19 19 19 19 19 17 18 19 19 20 22 24 25 25 25 26 28 31 34 38 45 51
21 20 20 20 21 21 22 23 23 23 23 23 23 23 24 24 23 22 21 20 20 20 20 20 19 19 20 21 23 24 25 26 27 27 27 29 31 33 35 39 44 51 56